Flag for Germany Weather past 2 weeks in Neuss, North Rhine-Westphalia, Germany

Now
61 °F

Clear.


Feels Like: 61 °F
Forecast: 62 / 77 °F
Wind: 3 mph from East

Location: Duesseldorf

Current Time: Sep 18, 2014 at 7:58:20 AM

Latest Report: Sep 18, 2014 at 7:20 AM


Visibility: 10 mi

Pressure: 29.83 "Hg

Humidity: 83%

Dew point: 55 °F

Location of NeussLocation

Historic Weather in Neuss — Graph

°F

Neuss temperature yesterday

Maximum temperature yesterday: 77 °F (at 2:20 PM)
Minimum temperature yesterday: 57 °F (at 2:50 AM)
Average temperature yesterday: 66 °F

Past Weeks' High & Low Weather Summary

 TemperatureHumidityPressure
High77 °F (Sep 5, 5:50 PM)100% (Sep 3, 6:20 AM)30.24 "Hg (Sep 3, 6:20 AM)
Low46 °F (Sep 12, 5:50 AM)46% (Sep 11, 4:50 PM)29.83 "Hg (Sep 18, 4:50 AM)
Average63 °F77%30.05 "Hg
* Reported Sep 3 6:20 AM — Sep 18 6:20 AM, Neuss, Weather by CustomWeather, © 2014

Note: Actual official high and low records may vary slightly from our data, if they occured in-between our weather recording intervals... More about our weather records

Advertising

Neuss weather history for previous 24 hours

 ConditionsComfort  
Time TempWeatherWind HumidityBarometerVisibility
6:20 AM
Sep 18
57 °FFog.3 mph94%29.83 "HgN/A
5:50 AM57 °FFog.2 mph94%29.83 "HgN/A
5:20 AM57 °FFog.2 mph94%29.83 "HgN/A
4:50 AM57 °FClear.3 mph94%29.83 "Hg10 mi
4:20 AM59 °FFog.3 mph88%29.86 "HgN/A
3:50 AM59 °FFog.2 mph88%29.86 "HgN/A
3:20 AM59 °FFog.2 mph88%29.86 "HgN/A
2:50 AM59 °FClear.3 mph88%29.86 "Hg10 mi
2:20 AM59 °FFog.3 mph88%29.86 "HgN/A
1:50 AM61 °FFog.2 mph83%29.86 "HgN/A
1:20 AM61 °FClear.1 mph83%29.86 "Hg10 mi
12:50 AM61 °FFog.3 mph83%29.86 "HgN/A
12:20 AM61 °FClear.3 mph83%29.86 "Hg10 mi
11:50 PM
Sep 17
63 °FClear.3 mph77%29.86 "Hg10 mi
11:20 PM63 °FClear.7 mph77%29.86 "Hg10 mi
10:50 PM64 °FClear.7 mph78%29.86 "Hg10 mi
10:20 PM64 °FClear.8 mph78%29.86 "Hg10 mi
9:50 PM64 °FClear.6 mph78%29.86 "Hg10 mi
9:20 PM64 °FClear.5 mph78%29.86 "Hg10 mi
8:50 PM66 °FClear.5 mph68%29.86 "Hg10 mi
8:20 PM68 °FSunny.5 mph64%29.86 "Hg10 mi
7:50 PM70 °FSunny.5 mph60%29.86 "Hg10 mi
7:20 PM72 °FSunny.7 mph57%29.86 "Hg10 mi
6:50 PM73 °FSunny.6 mph53%29.86 "Hg10 mi
6:20 PM75 °FPassing clouds.7 mph47%29.86 "HgN/A
5:50 PM77 °FPassing clouds.6 mph47%29.86 "HgN/A
5:20 PM77 °FPassing clouds.6 mph47%29.86 "HgN/A
4:50 PM77 °FPassing clouds.7 mph47%29.86 "HgN/A
4:20 PM75 °FPassing clouds.6 mph50%29.86 "HgN/A
3:50 PM75 °FPassing clouds.7 mph50%29.86 "HgN/A
3:20 PM77 °FPassing clouds.7 mph47%29.86 "HgN/A
2:50 PM75 °FPassing clouds.7 mph50%29.89 "HgN/A
2:20 PM77 °FPassing clouds.5 mph51%29.89 "HgN/A
1:50 PM75 °FPassing clouds.5 mph54%29.89 "HgN/A
1:20 PM75 °FPassing clouds.5 mph57%29.89 "HgN/A
12:50 PM75 °FPassing clouds.3 mph54%29.89 "HgN/A
12:20 PM73 °FPassing clouds.6 mph57%29.92 "HgN/A
11:50 AM73 °FPassing clouds.2 mph61%29.92 "HgN/A
11:20 AM72 °FPassing clouds.5 mph61%29.92 "HgN/A
10:50 AM70 °FSunny.5 mph64%29.92 "Hg10 mi
10:20 AM70 °FSunny.1 mph69%29.92 "Hg10 mi
9:50 AM64 °FSunny.2 mph78%29.92 "Hg10 mi
9:20 AM64 °FSunny.3 mph78%29.92 "Hg10 mi
8:50 AM63 °FSunny.1 mph83%29.92 "Hg10 mi
8:20 AM59 °FSunny.1 mph88%29.92 "Hg10 mi
7:50 AM57 °FFog.No wind94%29.92 "HgN/A
7:20 AM57 °FFog.3 mph88%29.92 "HgN/A
Weather by CustomWeather, © 2014

See weather overviewHow to use our weather pages